Find Yunyao-1 27

NORAD ID: 65490 Int'l Des: NNA 2025-197 Owner: YYAO Country: CN operational
LEOCIRCULARRETROGRADESSO

Live-Position

3D-Globus wird geladen...

Über Yunyao-1 27

Beschreibung wird geladen...

Nächste Überflüge

Passes for default location (London). Set your location on the main map for personalized predictions.

Höhenverlauf

Loading altitude history...

Zweizeiliger Elementsatz

1 65490U 25197C 26105.93205634 .00002725 00000-0 11527-3 0 9999
2 65490 97.4110 293.6513 0013564 224.7900 135.2243 15.23987393 33837
Epoch: 15. Apr. 2026 • Age: 7 hours

Aktueller Status

Höhe 514.1 km
Geschwindigkeit 7.61 km/s
Subsatellitenpunkt 82.32°N, 59.8°W
Startdatum 5. Sept. 2025
Alter 0.6 years
Typ other

Technische Details

Klassifizierung Payload
Masse 50.00 kg
Trockenmasse 50.00 kg
Gesamtmasse 50.00 kg
Länge 0.30 m
Durchmesser 1.80 m
Spannweite 1.00 m
Form Box
Hersteller CTYK
Bus-Typ TY170
Phasenstatus In Orbit
Besitzer/Staat YYAO/CN

Most Searched